Location: Pilipovskiye Korichintsy
(49.1833°N, 27.4667°E)
Time: 22:34:16
(UTC+00:00)

Cosmos 1733 Rocket - Pass Details

Date: 14 July 2020
Orbit: 604 x 627 km, 82.5° (Epoch: 10 August)

Event Time Altitude Azimuth Distance (km) Brightness Sun altitude
Exits shadow 01:29:33 - 223° (SW) 2,029 5.0 -7.2°
Reaches altitude 10° 01:29:46 10° 224° (SW) 1,951 4.9 -7.1°
Maximum altitude 01:33:38 32° 288° (WNW) 1,055 4.0 -6.7°
Drops below altitude 10° 01:37:32 10° 352° (N) 1,965 6.2 -6.2°
Sets 01:39:58 0° 3° (N) 2,875 7.3 -6.0°
